This is the latest recevied weather packets stored in our database for station/object KI5MKI. If no packets are shown the sender has not sent any weather packets the latest 1 day(s).
| Time | Temp. | Humidity | Pressure | Rain* | Wind** | Luminosity | Snow |
|---|---|---|---|---|---|---|---|
| 1778043817 | 15.56° C | 78% | 1009.8 hPa | 0 mm | 2.68 m/s, 313° | 0 W/m² | - |
| 1778043514 | 16.11° C | 78% | 1009.6 hPa | 0 mm | 1.34 m/s, 69° | 0 W/m² | - |
| 1778043210 | 16.11° C | 78% | 1009.6 hPa | 0 mm | 1.79 m/s, 46° | 0 W/m² | - |
| 1778042907 | 16.11° C | 78% | 1009.6 hPa | 0 mm | 1.34 m/s, 322° | 0 W/m² | - |
| 1778042605 | 16.11° C | 78% | 1009.2 hPa | 0 mm | 2.24 m/s, 42° | 0 W/m² | - |
| 1778042302 | 16.67° C | 78% | 1009.1 hPa | 0 mm | 0.89 m/s, 335° | 0 W/m² | - |
| 1778041999 | 16.67° C | 78% | 1009.2 hPa | 0 mm | 0.45 m/s, 45° | 0 W/m² | - |
| 1778041698 | 16.67° C | 78% | 1009.3 hPa | 0 mm | 2.24 m/s, 348° | 0 W/m² | - |
| 1778041397 | 16.67° C | 78% | 1009.3 hPa | 0 mm | 1.34 m/s, 289° | 0 W/m² | - |
| 1778041095 | 16.67° C | 77% | 1009.2 hPa | 0 mm | 2.24 m/s, 307° | 0 W/m² | - |
| 1778040791 | 17.22° C | 77% | 1009.1 hPa | 0 mm | 1.79 m/s, 307° | 0 W/m² | - |
| 1778040488 | 17.22° C | 76% | 1008.8 hPa | 0 mm | 4.02 m/s, 309° | 0 W/m² | - |
| 1778040186 | 17.78° C | 76% | 1009 hPa | 0 mm | 1.34 m/s, 303° | 0 W/m² | - |
| 1778039882 | 17.78° C | 76% | 1009.2 hPa | 0 mm | 2.68 m/s, 290° | 0 W/m² | - |
| 1778039579 | 18.33° C | 76% | 1008.9 hPa | 0 mm | 1.79 m/s, 333° | 0 W/m² | - |
| 1778039276 | 18.89° C | 76% | 1008.8 hPa | 0 mm | 1.79 m/s, 343° | 0 W/m² | - |
| 1778038973 | 18.89° C | 76% | 1008.5 hPa | 0 mm | 2.24 m/s, 256° | 0 W/m² | - |
| 1778038670 | 18.89° C | 75% | 1008.7 hPa | 0 mm | 0.45 m/s, 356° | 0 W/m² | - |
| 1778038367 | 19.44° C | 75% | 1008.8 hPa | 0 mm | 1.34 m/s, 318° | 0 W/m² | - |
| 1778038064 | 20° C | 76% | 1008.4 hPa | 0 mm | 1.79 m/s, 60° | 0 W/m² | - |
| 1778037761 | 20° C | 75% | 1008.7 hPa | 0 mm | 1.34 m/s, 325° | 0 W/m² | - |
| 1778037458 | 20° C | 75% | 1008.2 hPa | 0 mm | 1.34 m/s, 337° | 0 W/m² | - |
| 1778037155 | 20.56° C | 74% | 1008.3 hPa | 0 mm | 3.13 m/s, 358° | 0 W/m² | - |
| 1778036853 | 21.11° C | 73% | 1008.2 hPa | 0 mm | 3.13 m/s, 352° | 0 W/m² | - |
| 1778036551 | 21.67° C | 74% | 1007.9 hPa | 0 mm | 2.68 m/s, 306° | 0 W/m² | - |
* Rain latest hour (hover to see other rain measurements)
** Current wind speed in m/s (hover to see current wind gust speed)